Location: Lombard
(41.8800°N, 88.0080°W)
Time: 00:34:28
(UTC-05:00)

Tiros 1 - Pass Details

Date: 02 February 2023
Orbit: 628 x 662 km, 48.4° (Epoch: 20 March)

Event Time Altitude Azimuth Distance (km) Brightness Sun altitude
Rises 05:46:39 0° 297° (WNW) 2,938 - -14.6°
Reaches altitude 10° 05:48:58 10° 298° (WNW) 2,033 - -14.2°
Exits shadow 05:50:26 20° 299° (WNW) 1,474 8.4 -13.9°
Maximum altitude 05:53:40 85° 28° (NNE) 653 7.1 -13.3°
Drops below altitude 10° 05:58:24 10° 117° (ESE) 2,049 11.1 -12.5°
Sets 06:00:45 0° 117° (ESE) 2,963 12.2 -12.0°
